"Pseudo-MPEC" for P11dgX7

Created 2021 Feb 28 15:07:05 UT using Find_Orb

Click here for an explanation of pseudo-MPECs

 
 Astrometry: 
     P11dgX7  C2021 02 12S3PP1_,)^2U4)wAstrometry`2,sP)c:thX^g3C`gW6=BO#%O;7_F51
     P11dgX7  C2021 02 12Ot\i`h6Kredacted;PyHc7iv[Pclickcl@Z4p]nyS_^\ZheretL@F51
     P11dgX7  C2021 02 12bBWhagJJ%:G:j0,fordEexplanationtZ\BZ5(rrbmx(U@9wC!eGF51

Station data:
(F51) Pan-STARRS 1, Haleakala  (N20.707235 W156.255910)  US/Hawaii.
   Observers N. Primak, A. Schultz, S. Watters, J. Thiel, T. Goggia. Measurer
   PS1 Science Consortium. 1.8-m Ritchey-Chrétien + CCD.

Orbital elements:  P11dgX7
   Perihelion 2021 Dec 24.409611 +/- 185.231 TT =  9:49:50 (JD 2459572.909611)
Epoch 2021 Feb 12.0 TT = JDT 2459257.5   Earth MOID: 0.6600   AutoNEOCP
M 231.14369619 +/- 84.647095        (J2000 ecliptic)
n   0.40853638 +/- 0.254319         Peri.  147.88316 +/- 97.571374
a   1.79879726 +/- 0.746502         Node   131.32853 +/- 39.100187
e   0.0762317 +/- 0.281126          Incl.   22.20949 +/- 27.160273
P   2.41/881.18d           H 21.0   G  0.15   U 11.8  SR
q 1.66167180 +/- 0.726457    Q 1.93592272 +/- 35.1393
From 3 observations 2021 Feb. 12 (35.2 min); mean residual 0".05
Residuals in arcseconds: 
210212 F51  .04+  .02+    210212 F51  .09-  .03-    210212 F51  .04+  .02+    

Ephemerides (geocentric):
Date (UTC) HH   RA              Dec         delta   r     elong  mag " sig PA
---- -- -- --  -------------   -----------  ------ ------ -----  --- ---- ---
2021 02 28 15  09 35 51.109   +29 10 50.11  .94122 1.8787 153.0 23.1  33d 164
2021 02 28 16  09 35 48.521   +29 11 35.29  .94139 1.8786 153.0 23.1  33d 164
2021 02 28 17  09 35 45.936   +29 12 20.41  .94155 1.8786 152.9 23.1  33d 164
2021 02 28 18  09 35 43.353   +29 13 05.47  .94171 1.8786 152.9 23.1  33d 164
2021 02 28 19  09 35 40.773   +29 13 50.49  .94188 1.8785 152.8 23.1  33d 164
2021 02 28 20  09 35 38.195   +29 14 35.45  .94204 1.8785 152.8 23.1  33d 164
2021 02 28 21  09 35 35.619   +29 15 20.37  .94221 1.8785 152.7 23.1  33d 164
2021 02 28 22  09 35 33.046   +29 16 05.22  .94238 1.8784 152.7 23.1  33d 164
2021 02 28 23  09 35 30.476   +29 16 50.03  .94254 1.8784 152.6 23.1  33d 164
2021 03 01 00  09 35 27.908   +29 17 34.79  .94271 1.8784 152.6 23.1  33d 164
2021 03 01 01  09 35 25.343   +29 18 19.49  .94288 1.8783 152.5 23.1  33d 164
2021 03 01 02  09 35 22.780   +29 19 04.14  .94304 1.8783 152.5 23.1  33d 164
2021 03 01 03  09 35 20.219   +29 19 48.74  .94321 1.8783 152.4 23.1  33d 164
2021 03 01 04  09 35 17.662   +29 20 33.28  .94338 1.8782 152.4 23.1  33d 164
2021 03 01 05  09 35 15.107   +29 21 17.77  .94355 1.8782 152.3 23.1  33d 164
2021 03 01 06  09 35 12.554   +29 22 02.21  .94372 1.8782 152.3 23.1  33d 164
2021 03 01 07  09 35 10.004   +29 22 46.60  .94389 1.8781 152.2 23.1  33d 164
2021 03 01 08  09 35 07.457   +29 23 30.94  .94406 1.8781 152.2 23.1  33d 164
2021 03 01 09  09 35 04.912   +29 24 15.22  .94423 1.8781 152.1 23.1  33d 164
2021 03 01 10  09 35 02.370   +29 24 59.45  .94440 1.8781 152.1 23.1  33d 164
2021 03 01 11  09 34 59.830   +29 25 43.63  .94457 1.8780 152.0 23.1  33d 164
2021 03 01 12  09 34 57.293   +29 26 27.75  .94474 1.8780 152.0 23.1  33d 163
2021 03 01 13  09 34 54.759   +29 27 11.82  .94491 1.8780 151.9 23.1  33d 163
2021 03 01 14  09 34 52.227   +29 27 55.84  .94508 1.8779 151.9 23.1  33d 163
2021 03 01 15  09 34 49.698   +29 28 39.81  .94526 1.8779 151.8 23.1  33d 163
2021 03 01 16  09 34 47.172   +29 29 23.72  .94543 1.8779 151.8 23.1  33d 163
2021 03 01 17  09 34 44.648   +29 30 07.58  .94560 1.8778 151.7 23.1  33d 163
2021 03 01 18  09 34 42.127   +29 30 51.39  .94578 1.8778 151.7 23.1  33d 163
2021 03 01 19  09 34 39.608   +29 31 35.14  .94595 1.8778 151.6 23.1  33d 163
2021 03 01 20  09 34 37.093   +29 32 18.84  .94612 1.8777 151.6 23.1  33d 163
2021 03 01 21  09 34 34.579   +29 33 02.49  .94630 1.8777 151.5 23.1  33d 163
2021 03 01 22  09 34 32.069   +29 33 46.09  .94647 1.8777 151.5 23.1  33d 163
2021 03 01 23  09 34 29.561   +29 34 29.63  .94665 1.8776 151.4 23.1  33d 163
2021 03 02 00  09 34 27.056   +29 35 13.12  .94683 1.8776 151.3 23.1  33d 163
2021 03 02 01  09 34 24.554   +29 35 56.56  .94700 1.8776 151.3 23.1  33d 163
2021 03 02 02  09 34 22.055   +29 36 39.94  .94718 1.8775 151.2 23.1  33d 163
2021 03 02 03  09 34 19.558   +29 37 23.27  .94736 1.8775 151.2 23.1  33d 163
2021 03 02 04  09 34 17.064   +29 38 06.55  .94753 1.8775 151.1 23.1  33d 163
2021 03 02 05  09 34 14.573   +29 38 49.77  .94771 1.8774 151.1 23.1  33d 163
2021 03 02 06  09 34 12.084   +29 39 32.94  .94789 1.8774 151.0 23.1  33d 163
2021 03 02 07  09 34 09.598   +29 40 16.06  .94807 1.8774 151.0 23.1  33d 163
2021 03 02 08  09 34 07.115   +29 40 59.13  .94825 1.8773 150.9 23.1  33d 163
2021 03 02 09  09 34 04.635   +29 41 42.14  .94843 1.8773 150.9 23.1  33d 163
2021 03 02 10  09 34 02.157   +29 42 25.09  .94861 1.8773 150.8 23.1  33d 163
2021 03 02 11  09 33 59.683   +29 43 08.00  .94879 1.8773 150.8 23.1  33d 163
2021 03 02 12  09 33 57.211   +29 43 50.85  .94897 1.8772 150.7 23.1  33d 163
2021 03 02 13  09 33 54.742   +29 44 33.65  .94915 1.8772 150.7 23.1  33d 163
2021 03 02 14  09 33 52.276   +29 45 16.39  .94933 1.8772 150.6 23.1  33d 163